User: anonymous   Login
Location: Unspecified
(0.0000°N, 0.0000°E)
Time: 15:25:57
(UTC+01:00)
Language:

Centaur AC-64 - Orbit

View from above orbital plane
View from above orbital plane
View from above satellite
View from above satellite

Ground track
Ground track

The orbit data is extracted from the following two-line orbital elements,

1 15874U 85055B   14302.87835681  .00006672  00000-0  27418-2 0  5827
2 15874 023.2511 280.6978 6610876 319.0713 282.0453 03.13819093299921
Epoch (UTC): 29 October 2014 21:04:50
Eccentricity: 0.6610876
inclination: 23.2511°
perigee height: 301 km
apogee height: 26356 km
right ascension of ascending node: 280.6978°
argument of perigee: 319.0713°
revolutions per day: 3.13819093
mean anomaly at epoch: 282.0453°
orbit number at epoch: 29992

The dashed part of the orbit path shows where the satellite is in the earth's shadow,  

DLR